This is the latest recevied weather packets stored in our database for station/object 4S6DRJ-13. If no packets are shown the sender has not sent any weather packets the latest 10 day(s).
| Time | Temp. | Humidity | Pressure | Rain* | Wind** | Luminosity | Snow |
|---|---|---|---|---|---|---|---|
| 1788350436 | 28.33° C | 83% | 1007.8 hPa | 0.76 mm | 0.45 m/s, 240° | 74 W/m² | - |
| 1788350375 | 28.33° C | 83% | 1008.1 hPa | 0.76 mm | 0.89 m/s, 209° | 75 W/m² | - |
| 1788350314 | 28.33° C | 83% | 1008.1 hPa | 0.76 mm | 0.89 m/s, 239° | 75 W/m² | - |
| 1788350253 | 28.33° C | 83% | 1007.8 hPa | 0.76 mm | 0.89 m/s, 320° | 74 W/m² | - |
| 1788350192 | 28.33° C | 83% | 1008 hPa | 0.76 mm | 0.89 m/s, 259° | 74 W/m² | - |
| 1788350131 | 28.33° C | 83% | 1007.9 hPa | 0.76 mm | 0.89 m/s, 185° | 76 W/m² | - |
| 1788350070 | 28.33° C | 84% | 1008 hPa | 0.76 mm | 0.45 m/s, 185° | 76 W/m² | - |
| 1788350009 | 28.33° C | 84% | 1008 hPa | 0.76 mm | 0 m/s | 74 W/m² | - |
| 1788349948 | 28.33° C | 84% | 1007.9 hPa | 0.76 mm | 0 m/s | 70 W/m² | - |
| 1788349888 | 28.33° C | 83% | 1008.1 hPa | 0.76 mm | 0.45 m/s, 267° | 64 W/m² | - |
| 1788349826 | 28.33° C | 84% | 1008 hPa | 0.76 mm | 1.79 m/s, 314° | 61 W/m² | - |
| 1788349765 | 28.33° C | 84% | 1008 hPa | 0.76 mm | 1.34 m/s, 201° | 59 W/m² | - |
| 1788349704 | 28.33° C | 84% | 1008.1 hPa | 0.76 mm | 0.89 m/s, 304° | 56 W/m² | - |
| 1788349643 | 28.33° C | 84% | 1008 hPa | 0.76 mm | 0.89 m/s, 84° | 55 W/m² | - |
| 1788349582 | 28.33° C | 85% | 1008.1 hPa | 0.76 mm | 0.89 m/s, 281° | 55 W/m² | - |
| 1788349521 | 28.33° C | 85% | 1008.1 hPa | 0.76 mm | 0.89 m/s, 266° | 55 W/m² | - |
| 1788349460 | 28.33° C | 86% | 1008 hPa | 0.76 mm | 0.89 m/s, 181° | 56 W/m² | - |
| 1788349399 | 28.33° C | 86% | 1008.1 hPa | 0.76 mm | 0.45 m/s, 270° | 59 W/m² | - |
| 1788349338 | 28.33° C | 86% | 1007.9 hPa | 0.76 mm | 0.89 m/s, 132° | 66 W/m² | - |
| 1788349277 | 28.33° C | 87% | 1008 hPa | 0.76 mm | 0.89 m/s, 304° | 81 W/m² | - |
| 1788349216 | 28.33° C | 87% | 1007.9 hPa | 0.76 mm | 0.45 m/s, 281° | 106 W/m² | - |
| 1788349155 | 28.33° C | 88% | 1007.9 hPa | 0.76 mm | 0.89 m/s, 74° | 127 W/m² | - |
| 1788349094 | 28.33° C | 88% | 1007.8 hPa | 0.76 mm | 0 m/s | 145 W/m² | - |
| 1788349038 | 28.33° C | 88% | 1007.9 hPa | 0.76 mm | 0.45 m/s, 187° | 155 W/m² | - |
| 1788348972 | 28.33° C | 88% | 1007.9 hPa | 0.76 mm | 0.89 m/s, 222° | 160 W/m² | - |
* Rain latest hour (hover to see other rain measurements)
** Current wind speed in m/s (hover to see current wind gust speed)